Location: Smithers
(54.7670°N, 127.1670°W)
Time: 13:47:06
(UTC-07:00)

Daily predictions for brighter satellites

Satellite Brightness Start Highest point End
(mag) Time Altitude Azimuth Time Altitude Azimuth Time Altitude Azimuth
Landsat 7 3.9 22:58:22 10° SSE 23:03:08 81° WSW 23:07:57 10° NNW
Cosmos 292 Rocket 3.9 23:00:31 10° NNW 23:05:18 74° WSW 23:10:03 10° SSE
Cosmos 2058 2.9 23:01:19 10° S 23:05:26 88° W 23:09:34 10° NNE
NOSS 3-1 (C) 4.0 23:00:07 10° S 23:05:38 39° ESE 23:11:46 10° NE
Cosmos 1707 Rocket 4.3 23:02:09 10° NNW 23:06:24 53° W 23:10:38 10° S
Cosmos 1726 2.7 23:03:27 10° NNW 23:07:11 58° W 23:10:54 10° S
ARGOS 3.8 23:02:08 10° S 23:07:25 54° W 23:12:45 10° NNW
CZ-4B R/B 3.7 23:03:34 10° NNE 23:08:54 86° WNW 23:14:10 10° SSW
Cosmos 1271 Rocket 2.8 23:05:19 10° NNW 23:09:09 79° WSW 23:12:59 10° S
SAR-Lupe-2 3.6 23:06:27 10° SSE 23:10:02 77° ENE 23:13:38 10° NNW
Cosmos 1980 3.8 23:07:43 10° NNW 23:13:25 89° WSW 23:19:05 10° SSE
SL-14 R/B 3.3 23:09:40 10° S 23:13:38 79° E 23:17:41 10° NNE
Cosmos 1703 3.6 23:10:27 10° S 23:14:12 48° E 23:18:00 10° NNE
Nadezhda 1 Rocket 4.0 23:09:04 10° N 23:15:11 77° ENE 23:21:18 10° SSE
Spot 4 3.9 23:11:19 10° SSE 23:16:10 81° ENE 23:21:04 10° NNW
Cosmos 1666 Rocket 3.6 23:12:58 10° S 23:17:23 87° ESE 23:21:52 10° NNE
Terra 1.9 23:14:14 10° SSE 23:19:00 81° WSW 23:23:48 10° NNW
CZ-4B R/B 4.0 23:20:05 10° E 23:21:44 13° ENE 23:23:23 10° NNE
COSMOS 2455 3.1 23:16:09 10° NW 23:22:12 71° NE 23:28:14 10° SE
Cosmos 2219 3.2 23:17:57 10° SSW 23:23:42 76° ESE 23:29:28 10° NE
Cosmos 1898 Rocket 3.7 23:19:14 10° S 23:24:17 55° ESE 23:29:24 10° NNE
Cosmos 2150 Rocket 4.2 23:20:49 10° S 23:26:10 59° ESE 23:31:34 10° NNE
Cosmos 2237 Rocket 2.3 23:20:48 10° NW 23:26:33 80° WSW 23:32:15 10° SSE
CZ-4 R/B 4.1 23:22:00 10° NNE 23:27:02 80° WNW 23:31:56 10° SSW
Cosmos 1703 Rocket 4.4 23:23:27 10° N 23:27:32 38° ENE 23:31:38 10° SE
Okean 1-7 4.4 23:24:39 10° N 23:28:21 27° ENE 23:32:00 10° SE
CENTAUR R/B 4.2 23:22:53 10° WNW 23:29:27 44° N 23:36:46 10° ENE
Iridium 2 3.7 23:25:45 10° S 23:29:34 77° E 23:33:27 10° N
Cosmos 1933 4.1 23:26:36 10° N 23:30:29 41° ENE 23:34:18 10° SE
Cosmos 1470 Rocket 3.8 23:26:34 10° S 23:30:46 54° E 23:35:01 10° NNE
DMSP B5D2-2 4.2 23:25:41 10° NNE 23:30:53 60° ESE 23:36:02 10° S
Cosmos 1933 Rocket 3.9 23:27:51 10° S 23:32:12 55° E 23:36:35 10° NNE
IGS 5A 3.8 23:28:06 10° S 23:32:14 65° WSW 23:36:26 10° NNW
Aureole 2 Rocket 4.5 23:31:11 10° N 23:33:15 17° NE 23:35:23 10° E
Cosmos 1745 Rocket 4.0 23:28:09 10° S 23:34:21 75° E 23:40:32 10° NNE
Cosmos 2360 Rocket 4.4 23:35:15 10° WNW 23:38:34 16° W 23:41:52 10° SW
Meteor 1-4 Rocket 3.9 23:35:05 10° NNW 23:38:37 36° W 23:42:04 10° SSW
USA 234 3.6 23:33:05 10° E 23:39:37 75° N 23:46:10 10° W
SeaSat 1 2.5 23:35:16 10° SE 23:40:13 81° NE 23:45:11 10° NNW
BREEZE-M DEB (TANK) 4.1 23:25:25 10° W 23:41:55 59° SSW 23:46:11 10° ESE
CZ-4C R/B 3.5 23:38:01 10° NW 23:44:20 52° NNE 23:51:30 10° E
USA 229 DEB 4.1 23:42:08 10° WSW 23:49:07 74° NW 23:56:13 10° NE
USA 229 4.1 23:42:14 10° WSW 23:49:13 74° NW 23:56:19 10° NE
CZ-4C R/B 4.3 23:48:42 10° SE 23:51:51 32° ENE 23:55:08 10° N
Cosmos 1626 2.2 23:49:35 10° S 23:53:18 67° E 23:57:04 10° NNE
